カタログに戻る

FREGAT R/B

運用中HEO
NORAD 49504·ROCKET BODY·🇷🇺 Russia

打ち上げ Nov 25, 2021 から Plesetsk Cosmodrome

Loading…

次のパス (今後24時間)

TLE

最新Source: Space-Track

元期: Sep 13, 2026, 00:43 UTC

1 49504U 21113B   26256.03041501  .00001240  00000-0  00000-0 0  9992
2 49504  63.3423 199.1430 6474826 265.7897  23.3531  2.01603785 35336

AllMySatでFREGAT R/Bをリアルタイム追跡

Download on the App Store